NI4CE-10 Weather Reports


Display with metric or nautical units.
time (UTC)temp
F
wind
direction
speed
MPH
gust
MPH
rain 1hr
in
rain 24hr
in
rain mn
in
humidity
%
barometer
mb
20260508193028 96 333 6.0 10.0 0.00 0.00 0.00 100 1015.7
20260508192528 95 282 6.0 9.0 0.00 0.00 0.00 100 1015.8
20260508192028 93 14 1.0 5.0 0.00 0.00 0.00 100 1015.8
20260508191634 95 37 4.0 9.0 0.00 0.00 0.00 100 1016.0
20260508191528 95 37 4.0 9.0 0.00 0.00 0.00 100 1016.0
20260508191130 96 319 6.0 9.0 0.00 0.00 0.00 100 1016.0
20260508191028 96 319 6.0 9.0 0.00 0.00 0.00 100 1016.0
20260508190659 94 324 7.0 12.0 0.00 0.00 0.00 100 1015.9
20260508190528 94 324 7.0 12.0 0.00 0.00 0.00 100 1015.9
20260508190144 94 232 0.0 7.0 0.00 0.00 0.00 100 1015.9
20260508190028 94 232 0.0 7.0 0.00 0.00 0.00 100 1015.9
20260508185654 95 2 4.0 7.0 0.00 0.00 0.00 100 1016.0
20260508185528 95 2 4.0 7.0 0.00 0.00 0.00 100 1016.0
20260508185423 95 262 4.0 7.0 0.00 0.00 0.00 100 1016.1
20260508185028 95 262 4.0 7.0 0.00 0.00 0.00 100 1016.1
20260508184734 96 223 1.0 9.0 0.00 0.00 0.00 100 1016.2
20260508184655 96 223 1.0 9.0 0.00 0.00 0.00 100 1016.2
20260508184528 96 223 1.0 9.0 0.00 0.00 0.00 100 1016.2
20260508184028 96 309 1.0 9.0 0.00 0.00 0.00 100 1016.4
20260508183528 96 303 5.0 7.0 0.00 0.00 0.00 100 1016.4
20260508183028 95 28 0.0 11.0 0.00 0.00 0.00 100 1016.4
20260508182625 97 327 9.0 10.0 0.00 0.00 0.00 100 1016.6
20260508182528 97 327 9.0 10.0 0.00 0.00 0.00 100 1016.6
20260508182152 96 305 5.0 6.0 0.00 0.00 0.00 100 1016.7
20260508182028 96 305 5.0 6.0 0.00 0.00 0.00 100 1016.7
20260508181648 95 37 3.0 11.0 0.00 0.00 0.00 100 1016.9
20260508181528 95 37 3.0 11.0 0.00 0.00 0.00 100 1016.9
20260508181028 94 15 3.0 11.0 0.00 0.00 0.00 100 1016.9
20260508180629 97 16 2.0 6.0 0.00 0.00 0.00 100 1016.9
20260508180528 97 16 2.0 6.0 0.00 0.00 0.00 100 1016.9
20260508180122 96 330 6.0 11.0 0.00 0.00 0.00 100 1017.1
20260508180029 96 330 6.0 11.0 0.00 0.00 0.00 100 1017.1
20260508175640 94 354 4.0 10.0 0.00 0.00 0.00 100 1017.4
20260508175622 95 344 7.0 7.0 0.00 0.00 0.00 100 1017.0
20260508175529 95 344 7.0 7.0 0.00 0.00 0.00 100 1017.0
20260508175153 96 30 0.0 10.0 0.00 0.00 0.00 100 1017.1
20260508175029 96 30 0.0 10.0 0.00 0.00 0.00 100 1017.1
20260508174649 93 319 8.0 8.0 0.00 0.00 0.00 100 1017.2
20260508174529 93 319 8.0 8.0 0.00 0.00 0.00 100 1017.2
20260508174029 94 357 5.0 9.0 0.00 0.00 0.00 100 1017.3
20260508173651 95 16 3.0 9.0 0.00 0.00 0.00 100 1017.3
20260508173529 95 16 3.0 9.0 0.00 0.00 0.00 100 1017.3
20260508173125 94 15 6.0 11.0 0.00 0.00 0.00 100 1017.2
20260508173029 94 15 6.0 11.0 0.00 0.00 0.00 100 1017.2
20260508172627 93 1 6.0 7.0 0.00 0.00 0.00 100 1017.2
20260508172529 93 1 6.0 7.0 0.00 0.00 0.00 100 1017.2
20260508172153 93 347 4.0 9.0 0.00 0.00 0.00 100 1017.3
20260508172029 93 347 4.0 9.0 0.00 0.00 0.00 100 1017.3
20260508171624 94 354 4.0 10.0 0.00 0.00 0.00 100 1017.4
20260508171529 94 354 4.0 10.0 0.00 0.00 0.00 100 1017.4
20260508171212 95 320 6.0 9.0 0.00 0.00 0.00 100 1017.4
20260508171029 95 320 6.0 9.0 0.00 0.00 0.00 100 1017.4
20260508170640 94 260 5.0 10.0 0.00 0.00 0.00 100 1017.5
20260508170529 94 260 5.0 10.0 0.00 0.00 0.00 100 1017.5
20260508170150 92 343 7.0 9.0 0.00 0.00 0.00 100 1017.6
20260508170029 92 343 7.0 9.0 0.00 0.00 0.00 100 1017.6
20260508165608 94 357 1.0 11.0 0.00 0.00 0.00 100 1017.7
20260508165529 94 357 1.0 11.0 0.00 0.00 0.00 100 1017.7
20260508165029 95 331 7.0 10.0 0.00 0.00 0.00 100 1017.7
20260508164529 94 352 8.0 9.0 0.00 0.00 0.00 100 1017.8
20260508164133 93 352 4.0 11.0 0.00 0.00 0.00 100 1017.9
20260508164029 93 352 4.0 11.0 0.00 0.00 0.00 100 1017.9
20260508163715 93 347 5.0 9.0 0.00 0.00 0.00 100 1018.1
20260508163656 93 45 6.0 13.0 0.00 0.00 0.00 100 1018.0
20260508163529 93 45 6.0 13.0 0.00 0.00 0.00 100 1018.0
20260508163123 91 19 7.0 10.0 0.00 0.00 0.00 100 1018.0
20260508163029 91 19 7.0 10.0 0.00 0.00 0.00 100 1018.0
20260508162615 93 347 5.0 9.0 0.00 0.00 0.00 100 1018.1
20260508162529 93 347 5.0 9.0 0.00 0.00 0.00 100 1018.1
20260508162123 96 271 5.0 8.0 0.00 0.00 0.00 100 1018.1
20260508162029 96 271 5.0 8.0 0.00 0.00 0.00 100 1018.1
20260508161529 94 36 0.0 10.0 0.00 0.00 0.00 100 1018.1
20260508161254 95 303 9.0 10.0 0.00 0.00 0.00 100 1018.2
20260508161029 95 303 9.0 10.0 0.00 0.00 0.00 100 1018.2
20260508160649 95 320 6.0 11.0 0.00 0.00 0.00 100 1018.3
20260508160529 95 320 6.0 11.0 0.00 0.00 0.00 100 1018.3
20260508160156 93 278 0.0 8.0 0.00 0.00 0.00 100 1018.3
20260508160029 93 278 0.0 8.0 0.00 0.00 0.00 100 1018.3
20260508155529 93 288 3.0 10.0 0.00 0.00 0.00 100 1018.4
20260508155029 93 56 3.0 13.0 0.00 0.00 0.00 100 1018.5
20260508154529 94 320 4.0 8.0 0.00 0.00 0.00 100 1018.5
20260508154029 91 28 2.0 11.0 0.00 0.00 0.00 100 1018.7
20260508153701 91 66 4.0 10.0 0.00 0.00 0.00 100 1018.7
20260508153529 91 66 4.0 10.0 0.00 0.00 0.00 100 1018.7
20260508153209 94 36 5.0 9.0 0.00 0.00 0.00 100 1018.7
20260508153029 94 36 5.0 9.0 0.00 0.00 0.00 100 1018.7
20260508152529 92 317 1.0 11.0 0.00 0.00 0.00 100 1018.8
20260508152207 92 42 2.0 9.0 0.00 0.00 0.00 100 1018.8
20260508152029 92 42 2.0 9.0 0.00 0.00 0.00 100 1018.8
20260508151529 92 350 7.0 11.0 0.00 0.00 0.00 100 1018.9
20260508151257 93 9 4.0 9.0 0.00 0.00 0.00 100 1018.9
20260508151029 93 9 4.0 9.0 0.00 0.00 0.00 100 1018.9
20260508150529 93 350 4.0 8.0 0.00 0.00 0.00 100 1018.8
20260508150236 93 4 5.0 9.0 0.00 0.00 0.00 100 1018.7
20260508150029 93 4 5.0 9.0 0.00 0.00 0.00 100 1018.7
20260508145652 92 28 4.0 9.0 0.00 0.00 0.00 100 1018.8
20260508145644 86 329 5.0 8.0 0.00 0.00 0.00 100 1019.0
20260508145529 92 28 4.0 9.0 0.00 0.00 0.00 100 1018.8
20260508145029 91 260 2.0 5.0 0.00 0.00 0.00 100 1018.8
20260508144529 91 9 5.0 9.0 0.00 0.00 0.00 100 1018.8
20260508144159 91 4 4.0 8.0 0.00 0.00 0.00 100 1018.8
20260508144029 91 4 4.0 8.0 0.00 0.00 0.00 100 1018.8
20260508143529 90 333 3.0 7.0 0.00 0.00 0.00 100 1018.8
20260508143029 88 8 6.0 9.0 0.00 0.00 0.00 100 1018.9
20260508142529 87 291 5.0 10.0 0.00 0.00 0.00 100 1018.8
20260508142200 91 4 7.0 9.0 0.00 0.00 0.00 100 1018.8
20260508142029 91 4 7.0 9.0 0.00 0.00 0.00 100 1018.8
20260508141529 88 12 2.0 11.0 0.00 0.00 0.00 100 1018.8
20260508141029 88 28 5.0 8.0 0.00 0.00 0.00 100 1018.9
20260508140530 88 343 6.0 9.0 0.00 0.00 0.00 100 1019.0
20260508140030 86 329 5.0 8.0 0.00 0.00 0.00 100 1019.0
20260508135530 88 331 4.0 8.0 0.00 0.00 0.00 100 1018.9
20260508135030 89 319 4.0 8.0 0.00 0.00 0.00 100 1018.9
20260508134530 86 29 4.0 4.0 0.00 0.00 0.00 100 1018.8
20260508134146 86 18 4.0 9.0 0.00 0.00 0.00 100 1018.8
20260508134030 87 278 1.0 8.0 0.00 0.00 0.00 100 1018.9
20260508133644 86 18 4.0 9.0 0.00 0.00 0.00 100 1018.8
20260508133530 86 18 4.0 9.0 0.00 0.00 0.00 100 1018.8
20260508133030 85 327 5.0 9.0 0.00 0.00 0.00 100 1018.9
20260508132530 86 320 4.0 6.0 0.00 0.00 0.00 100 1018.8
20260508132030 85 272 1.0 6.0 0.00 0.00 0.00 100 1018.8
20260508131530 85 329 3.0 7.0 0.00 0.00 0.00 100 1018.7
20260508131030 86 337 7.0 8.0 0.00 0.00 0.00 100 1018.7
20260508130530 85 323 5.0 6.0 0.00 0.00 0.00 100 1018.7
20260508130030 85 340 1.0 7.0 0.00 0.00 0.00 100 1018.6
20260508125530 83 312 3.0 5.0 0.00 0.00 0.00 100 1018.7
20260508125131 84 317 4.0 5.0 0.00 0.00 0.00 100 1018.6
20260508125030 84 317 4.0 5.0 0.00 0.00 0.00 100 1018.6
20260508124530 84 21 2.0 5.0 0.00 0.00 0.00 100 1018.6
20260508124030 83 289 2.0 4.0 0.00 0.00 0.00 100 1018.6
20260508123530 82 264 0.0 2.0 0.00 0.00 0.00 100 1018.6
20260508123030 81 279 0.0 2.0 0.00 0.00 0.00 100 1018.5
20260508122530 80 298 0.0 0.0 0.00 0.00 0.00 100 1018.5
20260508122030 79 298 0.0 0.0 0.00 0.00 0.00 100 1018.4
20260508121530 78 298 0.0 0.0 0.00 0.00 0.00 100 1018.3
20260508121030 78 298 0.0 0.0 0.00 0.00 0.00 100 1018.3
20260508120601 76 298 0.0 0.0 0.00 0.00 0.00 100 1018.3
20260508120530 76 298 0.0 0.0 0.00 0.00 0.00 100 1018.3
20260508120030 75 298 0.0 0.0 0.00 0.00 0.00 100 1018.2
20260508115530 74 298 0.0 0.0 0.00 0.00 0.00 100 1018.2
20260508115030 73 298 0.0 0.0 0.00 0.00 0.00 100 1018.1
20260508114530 71 298 0.0 0.0 0.00 0.00 0.00 100 1018.0
20260508114030 70 298 0.0 0.0 0.00 0.00 0.00 100 1018.0
20260508113530 68 298 0.0 0.0 0.00 0.00 0.00 100 1017.8
20260508113030 67 298 0.0 0.0 0.00 0.00 0.00 100 1017.7
20260508112530 66 298 0.0 0.0 0.00 0.00 0.00 100 1017.6
20260508112030 65 298 0.0 0.0 0.00 0.00 0.00 100 1017.6
20260508111530 64 298 0.0 0.0 0.00 0.00 0.00 100 1017.5
20260508111119 63 298 0.0 0.0 0.00 0.00 0.00 100 1017.2
20260508111030 64 298 0.0 0.0 0.00 0.00 0.00 100 1017.3
20260508110530 64 298 0.0 0.0 0.00 0.00 0.00 100 1017.3
20260508110030 64 298 0.0 0.0 0.00 0.00 0.00 100 1017.2
20260508105530 63 298 0.0 0.0 0.00 0.00 0.00 100 1017.2
20260508105409 63 298 0.0 0.0 0.00 0.00 0.00 100 1017.2
20260508105030 63 298 0.0 0.0 0.00 0.00 0.00 100 1017.2
20260508104925 63 298 0.0 0.0 0.00 0.00 0.00 100 1017.0
20260508104530 63 298 0.0 0.0 0.00 0.00 0.00 100 1017.1
20260508104030 63 298 0.0 0.0 0.00 0.00 0.00 100 1017.1
20260508103530 63 298 0.0 0.0 0.00 0.00 0.00 100 1017.0
20260508103430 63 298 0.0 0.0 0.00 0.00 0.00 100 1016.9
20260508103030 63 298 0.0 0.0 0.00 0.00 0.00 100 1017.0
20260508102530 63 298 0.0 0.0 0.00 0.00 0.00 100 1016.9
20260508102030 64 298 0.0 0.0 0.00 0.00 0.00 100 1016.9
20260508101530 64 298 0.0 0.0 0.00 0.00 0.00 100 1016.9
20260508101031 64 298 0.0 0.0 0.00 0.00 0.00 100 1016.8
20260508100610 64 298 0.0 0.0 0.00 0.00 0.00 100 1016.6
20260508100531 63 298 0.0 0.0 0.00 0.00 0.00 100 1016.7
20260508100031 64 298 0.0 0.0 0.00 0.00 0.00 100 1016.7
20260508095531 64 298 0.0 0.0 0.00 0.00 0.00 100 1016.6
20260508095031 64 298 0.0 0.0 0.00 0.00 0.00 100 1016.6
20260508094531 63 298 0.0 0.0 0.00 0.00 0.00 100 1016.5
20260508094031 64 298 0.0 0.0 0.00 0.00 0.00 100 1016.5
20260508093531 64 298 0.0 0.0 0.00 0.00 0.00 100 1016.5
20260508093031 64 298 0.0 0.0 0.00 0.00 0.00 100 1016.6
20260508092857 64 298 0.0 0.0 0.00 0.00 0.00 100 1016.5
20260508092531 64 298 0.0 0.0 0.00 0.00 0.00 100 1016.6
20260508092031 64 298 0.0 0.0 0.00 0.00 0.00 100 1016.5
20260508092024 64 298 0.0 0.0 0.00 0.00 0.00 100 1016.5
20260508091531 64 298 0.0 0.0 0.00 0.00 0.00 100 1016.5
20260508091031 65 298 0.0 0.0 0.00 0.00 0.00 100 1016.5
20260508090531 65 298 0.0 0.0 0.00 0.00 0.00 100 1016.5
20260508090031 65 298 0.0 0.0 0.00 0.00 0.00 100 1016.4
20260508085531 65 298 0.0 0.0 0.00 0.00 0.00 100 1016.5
20260508085031 65 298 0.0 0.0 0.00 0.00 0.00 100 1016.4
20260508084531 65 298 0.0 0.0 0.00 0.00 0.00 100 1016.4
20260508084031 65 298 0.0 0.0 0.00 0.00 0.00 100 1016.4
20260508083531 65 298 0.0 0.0 0.00 0.00 0.00 100 1016.4
20260508083031 65 298 0.0 0.0 0.00 0.00 0.00 100 1016.3
20260508082531 65 298 0.0 0.0 0.00 0.00 0.00 100 1016.4
20260508082031 65 298 0.0 0.0 0.00 0.00 0.00 100 1016.3
20260508081531 65 298 0.0 0.0 0.00 0.00 0.00 100 1016.4
20260508081031 65 298 0.0 0.0 0.00 0.00 0.00 100 1016.4
20260508080531 65 298 0.0 0.0 0.00 0.00 0.00 100 1016.3
20260508080111 65 298 0.0 0.0 0.00 0.00 0.00 100 1016.4
20260508080031 65 298 0.0 0.0 0.00 0.00 0.00 100 1016.4
20260508075531 66 298 0.0 0.0 0.00 0.00 0.00 100 1016.4
20260508075031 66 298 0.0 0.0 0.00 0.00 0.00 100 1016.5
20260508074531 66 298 0.0 0.0 0.00 0.00 0.00 100 1016.4
20260508074031 66 298 0.0 0.0 0.00 0.00 0.00 100 1016.5
20260508073531 66 298 0.0 0.0 0.00 0.00 0.00 100 1016.5
20260508073031 66 298 0.0 0.0 0.00 0.00 0.00 100 1016.5
20260508072531 66 298 0.0 0.0 0.00 0.00 0.00 100 1016.6
20260508072031 66 298 0.0 0.0 0.00 0.00 0.00 100 1016.6
20260508071531 66 298 0.0 0.0 0.00 0.00 0.00 100 1016.6
20260508071031 67 298 0.0 0.0 0.00 0.00 0.00 100 1016.6
20260508070531 67 298 0.0 0.0 0.00 0.00 0.00 100 1016.6
20260508070031 67 298 0.0 0.0 0.00 0.00 0.00 100 1016.6
20260508065531 67 298 0.0 0.0 0.00 0.00 0.00 100 1016.7
20260508065031 67 298 0.0 0.0 0.00 0.00 0.00 100 1016.7
20260508064531 68 298 0.0 0.0 0.00 0.00 0.00 100 1016.8
20260508064031 68 298 0.0 0.0 0.00 0.00 0.00 100 1016.9
20260508063531 68 298 0.0 0.0 0.00 0.00 0.00 100 1016.9
20260508063031 68 298 0.0 0.0 0.00 0.00 0.00 100 1016.9
20260508062531 69 298 0.0 2.0 0.00 0.00 0.00 100 1017.0
20260508062031 68 279 0.0 0.0 0.00 0.00 0.00 100 1017.1
20260508061531 68 279 0.0 0.0 0.00 0.00 0.00 100 1017.0
20260508061032 69 279 0.0 0.0 0.00 0.00 0.00 100 1017.0
20260508060532 69 279 0.0 0.0 0.00 0.00 0.00 100 1017.1
20260508060141 68 279 0.0 0.0 0.00 0.00 0.00 100 1017.2
20260508060032 68 279 0.0 0.0 0.00 0.00 0.00 100 1017.1
20260508055532 68 279 0.0 0.0 0.00 0.00 0.00 100 1017.2
20260508055032 68 279 0.0 0.0 0.00 0.00 0.00 100 1017.3
20260508054532 68 279 0.0 0.0 0.00 0.00 0.00 100 1017.3
20260508054032 68 279 0.0 0.0 0.00 0.00 0.00 100 1017.3
20260508053532 67 279 0.0 0.0 0.00 0.00 0.00 100 1017.4
20260508053440 68 279 0.0 0.0 0.00 0.00 0.00 100 1017.4
20260508053032 68 279 0.0 0.0 0.00 0.00 0.00 100 1017.4
20260508052532 68 279 0.0 0.0 0.00 0.00 0.00 100 1017.4
20260508052413 68 279 0.0 0.0 0.00 0.00 0.00 100 1017.4
20260508052032 68 279 0.0 0.0 0.00 0.00 0.00 100 1017.4
20260508052009 68 279 0.0 0.0 0.00 0.00 0.00 100 1017.4
20260508051532 68 279 0.0 0.0 0.00 0.00 0.00 100 1017.4
20260508051350 69 279 0.0 0.0 0.00 0.00 0.00 100 1017.5
20260508051032 68 279 0.0 0.0 0.00 0.00 0.00 100 1017.5
20260508050532 69 279 0.0 0.0 0.00 0.00 0.00 100 1017.5
20260508050526 70 279 0.0 0.0 0.00 0.00 0.00 100 1017.6
20260508050032 70 279 0.0 0.0 0.00 0.00 0.00 100 1017.5
20260508045532 70 279 0.0 0.0 0.00 0.00 0.00 100 1017.5
20260508045032 69 279 0.0 0.0 0.00 0.00 0.00 100 1017.5
20260508044532 70 279 0.0 0.0 0.00 0.00 0.00 100 1017.5
20260508044032 70 279 0.0 0.0 0.00 0.00 0.00 100 1017.5
20260508043532 70 279 0.0 0.0 0.00 0.00 0.00 100 1017.5
20260508043032 70 279 0.0 0.0 0.00 0.00 0.00 100 1017.6
20260508042532 70 279 0.0 0.0 0.00 0.00 0.00 100 1017.6
20260508042157 71 279 0.0 0.0 0.00 0.00 0.00 100 1017.6
20260508042032 71 279 0.0 0.0 0.00 0.00 0.00 100 1017.6
20260508041532 71 279 0.0 0.0 0.00 0.00 0.00 100 1017.6
20260508041032 71 279 0.0 0.0 0.00 0.00 0.00 100 1017.7
20260508040532 71 279 0.0 0.0 0.00 0.00 0.00 100 1017.7
20260508040032 71 279 0.0 0.0 0.00 0.00 0.00 100 1017.7
20260508035532 71 279 0.0 1.0 0.00 0.00 0.00 100 1017.8
20260508035032 71 279 1.0 3.0 0.00 0.00 0.00 100 1017.9
20260508034532 71 264 0.0 3.0 0.00 0.00 0.00 100 1017.9
20260508034032 71 310 3.0 4.0 0.00 0.00 0.00 100 1018.0
20260508033532 71 317 2.0 4.0 0.00 0.00 0.00 100 1017.9
20260508033032 71 320 0.0 0.0 0.00 0.00 0.00 100 1017.9
20260508032532 70 320 0.0 0.0 0.00 0.00 0.00 100 1017.8
20260508032032 70 320 0.0 0.0 0.00 0.00 0.00 100 1017.8
20260508031533 71 320 0.0 1.0 0.00 0.00 0.00 100 1017.8
20260508031032 71 279 0.0 2.0 0.00 0.00 0.00 100 1017.7
20260508030532 71 293 0.0 2.0 0.00 0.00 0.00 100 1017.7
20260508030032 71 282 1.0 2.0 0.00 0.00 0.00 100 1017.7
20260508025532 71 274 1.0 1.0 0.00 0.00 0.00 100 1017.7
20260508025032 71 282 1.0 2.0 0.00 0.00 0.00 100 1017.7
20260508024532 71 277 2.0 2.0 0.00 0.00 0.00 100 1017.7
20260508024032 71 254 0.0 3.0 0.00 0.00 0.00 100 1017.8
20260508023532 71 279 1.0 3.0 0.00 0.00 0.00 100 1017.7
20260508023032 71 296 1.0 2.0 0.00 0.00 0.00 100 1017.7
20260508022532 71 295 0.0 0.0 0.00 0.00 0.00 100 1017.7
20260508022032 71 295 0.0 1.0 0.00 0.00 0.00 100 1017.7
20260508021532 72 288 0.0 3.0 0.00 0.00 0.00 100 1017.8
20260508021033 72 306 0.0 2.0 0.00 0.00 0.00 100 1017.8
20260508020533 72 302 1.0 3.0 0.00 0.00 0.00 100 1017.8
20260508020033 72 312 1.0 3.0 0.00 0.00 0.00 100 1017.7
20260508015533 72 320 2.0 3.0 0.00 0.00 0.00 100 1017.7
20260508015033 72 310 1.0 4.0 0.00 0.00 0.00 100 1017.8
20260508014533 72 288 0.0 3.0 0.00 0.00 0.00 100 1017.7
20260508014033 72 295 0.0 0.0 0.00 0.00 0.00 100 1017.6
20260508013533 73 295 0.0 2.0 0.00 0.00 0.00 100 1017.6
20260508013033 73 288 1.0 3.0 0.00 0.00 0.00 100 1017.6
20260508012533 73 310 2.0 3.0 0.00 0.00 0.00 100 1017.6
20260508012256 73 296 0.0 3.0 0.00 0.00 0.00 100 1017.5
20260508012033 74 312 2.0 3.0 0.00 0.00 0.00 100 1017.5
20260508011533 73 296 0.0 3.0 0.00 0.00 0.00 100 1017.5
20260508011033 74 271 1.0 2.0 0.00 0.00 0.00 100 1017.5
20260508010812 74 303 0.0 0.0 0.00 0.00 0.00 100 1017.4
20260508010533 74 303 0.0 0.0 0.00 0.00 0.00 100 1017.4
20260508010033 74 303 0.0 0.0 0.00 0.00 0.00 100 1017.4
20260508005533 75 303 0.0 3.0 0.00 0.00 0.00 100 1017.4
20260508005254 76 274 0.0 0.0 0.00 0.00 0.00 100 1017.2
20260508005033 75 267 1.0 3.0 0.00 0.00 0.00 100 1017.4
20260508004533 75 319 1.0 2.0 0.00 0.00 0.00 100 1017.3
20260508004033 75 274 1.0 1.0 0.00 0.00 0.00 100 1017.3
20260508003533 75 274 0.0 0.0 0.00 0.00 0.00 100 1017.3
20260508003033 75 274 0.0 0.0 0.00 0.00 0.00 100 1017.2
20260508002533 76 274 0.0 0.0 0.00 0.00 0.00 100 1017.2
20260508002359 82 295 1.0 5.0 0.00 0.00 0.00 100 1017.1
20260508002033 77 274 0.0 0.0 0.00 0.00 0.00 100 1017.2
20260508001533 78 274 0.0 0.0 0.00 0.00 0.00 100 1017.2
20260508001033 79 274 0.0 0.0 0.00 0.00 0.00 100 1017.1
20260508000533 80 274 0.0 0.0 0.00 0.00 0.00 100 1017.1
20260508000033 80 274 0.0 3.0 0.00 0.00 0.00 100 1017.0
20260507235533 81 284 1.0 2.0 0.00 0.00 0.00 100 1017.0
20260507235033 81 279 1.0 5.0 0.00 0.00 0.00 100 1017.0
20260507234533 82 295 1.0 4.0 0.00 0.00 0.00 100 1017.1
20260507234033 82 295 1.0 5.0 0.00 0.00 0.00 100 1017.1
20260507233533 83 299 0.0 3.0 0.00 0.00 0.00 100 1017.1
20260507233033 83 286 0.0 7.0 0.00 0.00 0.00 100 1017.0
20260507232533 83 306 1.0 6.0 0.00 0.00 0.00 100 1017.0
20260507232033 84 295 4.0 8.0 0.00 0.00 0.00 100 1017.0
20260507231533 84 300 3.0 6.0 0.00 0.00 0.00 100 1017.0
20260507231033 85 298 1.0 7.0 0.00 0.00 0.00 100 1016.9
20260507230533 85 317 2.0 5.0 0.00 0.00 0.00 100 1016.8
20260507230033 85 282 2.0 7.0 0.00 0.00 0.00 100 1016.8
20260507225533 86 327 2.0 7.0 0.00 0.00 0.00 100 1016.8
20260507225033 86 312 6.0 10.0 0.00 0.00 0.00 100 1016.8
20260507224533 86 334 8.0 8.0 0.00 0.00 0.00 100 1016.8
20260507224033 86 267 4.0 8.0 0.00 0.00 0.00 100 1016.7
20260507223533 86 264 6.0 9.0 0.00 0.00 0.00 100 1016.7
20260507223033 86 295 3.0 10.0 0.00 0.00 0.00 100 1016.7
20260507222533 87 289 2.0 10.0 0.00 0.00 0.00 100 1016.7
20260507222033 87 284 3.0 11.0 0.00 0.00 0.00 100 1016.7
20260507221534 87 270 2.0 7.0 0.00 0.00 0.00 100 1016.8
20260507221034 87 313 4.0 7.0 0.00 0.00 0.00 100 1016.7
20260507220534 87 281 3.0 7.0 0.00 0.00 0.00 100 1016.8
20260507220034 87 268 4.0 9.0 0.00 0.00 0.00 100 1016.7
20260507215534 88 288 1.0 13.0 0.00 0.00 0.00 100 1016.7
20260507215034 87 312 2.0 10.0 0.00 0.00 0.00 100 1016.7
20260507214534 88 338 6.0 11.0 0.00 0.00 0.00 100 1016.8
20260507214034 89 310 6.0 8.0 0.00 0.00 0.00 100 1016.8
20260507213830 90 305 6.0 11.0 0.00 0.00 0.00 100 1016.8
20260507213534 89 326 8.0 11.0 0.00 0.00 0.00 100 1016.7
20260507213034 90 307 10.0 11.0 0.00 0.00 0.00 100 1016.7
20260507212534 90 305 6.0 11.0 0.00 0.00 0.00 100 1016.8
20260507212034 90 315 7.0 12.0 0.00 0.00 0.00 100 1016.8
20260507211534 90 317 6.0 9.0 0.00 0.00 0.00 100 1016.8
20260507211034 92 291 3.0 9.0 0.00 0.00 0.00 100 1016.9
20260507210534 91 261 8.0 10.0 0.00 0.00 0.00 100 1017.0
20260507210034 92 317 5.0 14.0 0.00 0.00 0.00 100 1017.0
20260507205717 91 289 5.0 12.0 0.00 0.00 0.00 100 1017.0
20260507205534 92 307 5.0 12.0 0.00 0.00 0.00 100 1017.0
20260507205034 92 262 3.0 15.0 0.00 0.00 0.00 100 1017.0
20260507204534 92 270 6.0 12.0 0.00 0.00 0.00 100 1017.0
20260507204034 91 286 5.0 14.0 0.00 0.00 0.00 100 1017.0
20260507203534 91 289 5.0 12.0 0.00 0.00 0.00 100 1017.0
20260507203307 91 327 3.0 13.0 0.00 0.00 0.00 100 1017.0
20260507203034 92 312 3.0 11.0 0.00 0.00 0.00 100 1017.0
20260507202534 91 327 3.0 13.0 0.00 0.00 0.00 100 1017.0
20260507202320 91 268 5.0 15.0 0.00 0.00 0.00 100 1017.0
20260507202034 91 268 5.0 15.0 0.00 0.00 0.00 100 1017.0
20260507201534 92 237 5.0 12.0 0.00 0.00 0.00 100 1017.0
20260507201034 93 296 2.0 11.0 0.00 0.00 0.00 100 1017.0
20260507200550 93 324 11.0 13.0 0.00 0.00 0.00 100 1017.1
20260507200534 93 284 7.0 11.0 0.00 0.00 0.00 100 1017.0
20260507200034 93 324 11.0 13.0 0.00 0.00 0.00 100 1017.1
20260507195534 93 265 4.0 11.0 0.00 0.00 0.00 100 1017.0
20260507195034 93 337 2.0 12.0 0.00 0.00 0.00 100 1017.1
20260507194534 93 358 4.0 9.0 0.00 0.00 0.00 100 1017.1
20260507194217 91 262 12.0 14.0 0.00 0.00 0.00 100 1017.3
20260507194034 94 275 2.0 9.0 0.00 0.00 0.00 100 1017.3
20260507193534 92 272 2.0 11.0 0.00 0.00 0.00 100 1017.3